Date String (YYYY-MM-DD hh:mm:ss) UTC,Instrument flags,absolute air pressure of the measurement (hPa),sample flow rate (lpm),inlet stack bypass flow (lpm),air temperature of the measurement (°C),ambient temperature measured by the external sensor (°C),aerosol sample conditioner tube jacket temperature (°C),OPC LED temperature (°C),internal box temperature (°C),relative humidity of the measurement (%),span deviation,mass concentration of particles derived from Lorenz-Mie calculation of OPC scattering (μg/m³),mass concentration of particles derived from Lorenz-Mie calculation of OPC scattering (μg/m³),mass concentration of particles derived from Lorenz-Mie calculation of OPC scattering (μg/m³)
DateTimeUTC,F1_M11,P_M11,Q1_M11,Q2_M11,T1_M11,T2_M11,T3_M11,T4_M11,T5_M11,U1_M11,ZSPAN_M11,X0_M11,X2_M11,X1_M11
2024-04-03 05:00:00,SystemResetWarning,0830.9,5.00,000.00,023.8,022.9,000.0,032.4,025.6,11.2,0000.0,0003.18,0001.96,0001.36
2024-04-03 05:01:00,SystemResetWarning,0830.9,5.00,000.00,023.8,022.9,000.0,032.4,025.6,11.3,0000.0,0004.06,0001.99,0001.36
2024-04-03 05:02:00,SystemResetWarning,0830.9,5.00,000.00,023.8,022.9,000.0,032.4,025.6,11.4,0000.0,0003.99,0001.97,0001.37
2024-04-03 05:03:00,SystemResetWarning,0830.9,5.00,000.00,023.8,022.9,000.0,032.4,025.6,11.2,0000.0,0004.01,0001.99,0001.37
2024-04-03 05:04:00,SystemResetWarning,0831.0,5.01,000.00,023.8,022.9,000.0,032.4,025.6,11.3,0000.0,0004.15,0002.03,0001.36
2024-04-03 05:05:00,SystemResetWarning,0830.9,5.00,000.00,023.8,022.9,000.0,032.4,025.6,11.5,0000.0,0004.15,0002.02,0001.36
2024-04-03 05:06:00,SystemResetWarning,0830.9,5.00,000.00,023.8,022.9,000.0,032.4,025.6,11.7,0000.0,0004.19,0002.05,0001.37
2024-04-03 05:07:00,SystemResetWarning,0830.9,5.00,000.00,023.8,022.9,000.0,032.4,025.6,11.7,0000.0,0004.10,0002.01,0001.36
2024-04-03 05:08:00,SystemResetWarning,0830.9,5.00,000.00,023.8,022.9,000.0,032.4,025.6,11.6,0000.0,0004.20,0002.03,0001.36
2024-04-03 05:09:00,SystemResetWarning,0830.9,5.00,000.00,023.8,022.9,000.0,032.4,025.6,11.5,0000.0,0004.30,0002.03,0001.36
2024-04-03 05:10:00,SystemResetWarning,0830.9,5.00,000.00,023.8,022.9,000.0,032.4,025.6,11.3,0000.0,0004.35,0002.04,0001.36
2024-04-03 05:11:00,SystemResetWarning,0830.9,5.00,000.00,023.8,022.9,000.0,032.4,025.6,11.5,0000.0,0004.33,0002.05,0001.37
2024-04-03 05:12:00,SystemResetWarning,0830.8,5.00,000.00,023.8,022.9,000.0,032.4,025.6,11.3,0000.0,0003.81,0002.09,0001.37
2024-04-03 05:13:00,SystemResetWarning,0830.9,5.01,000.00,023.7,022.9,000.0,032.4,025.5,11.3,0000.0,0003.84,0002.11,0001.37
2024-04-03 05:14:00,SystemResetWarning,0830.8,5.00,000.00,023.7,022.8,000.0,032.4,025.5,11.4,0000.0,0003.94,0002.14,0001.36
2024-04-03 05:15:00,SystemResetWarning,0830.8,5.00,000.00,023.7,022.8,000.0,032.4,025.5,11.4,0000.0,0003.81,0002.11,0001.37
2024-04-03 05:16:00,SystemResetWarning,0830.8,5.00,000.00,023.7,022.8,000.0,032.4,025.5,11.5,0000.0,0004.72,0002.15,0001.38
2024-04-03 05:17:00,SystemResetWarning,0830.8,5.00,000.00,023.7,022.7,000.0,032.3,025.5,11.5,0000.0,0005.41,0002.09,0001.37
2024-04-03 05:18:00,SystemResetWarning,0830.8,5.00,000.00,023.7,022.7,000.0,032.3,025.5,11.6,0000.0,0005.34,0002.07,0001.37
2024-04-03 05:19:00,SystemResetWarning,0830.8,5.01,000.00,023.7,022.7,000.0,032.3,025.5,11.5,0000.0,0005.35,0002.08,0001.38
2024-04-03 05:20:00,SystemResetWarning,0830.8,5.00,000.00,023.7,022.7,000.0,032.3,025.5,11.7,0000.0,0005.18,0002.05,0001.38
2024-04-03 05:21:00,SystemResetWarning,0830.8,5.00,000.00,023.7,022.7,000.0,032.3,025.5,11.8,0000.0,0005.08,0002.02,0001.37
2024-04-03 05:22:00,SystemResetWarning,0830.8,5.00,000.00,023.7,022.7,000.0,032.3,025.5,11.8,0000.0,0005.29,0002.09,0001.37
2024-04-03 05:23:00,SystemResetWarning,0830.8,4.99,000.00,023.6,022.7,000.0,032.3,025.5,11.7,0000.0,0005.03,0002.05,0001.38
2024-04-03 05:24:00,SystemResetWarning,0830.8,5.00,000.00,023.6,022.6,000.0,032.3,025.5,11.8,0000.0,0004.89,0002.01,0001.38
2024-04-03 05:25:00,SystemResetWarning,0830.8,5.00,000.00,023.6,022.7,000.0,032.3,025.5,12.0,0000.0,0005.00,0002.03,0001.37
2024-04-03 05:26:00,SystemResetWarning,0830.9,5.00,000.00,023.6,022.7,000.0,032.3,025.5,12.0,0000.0,0005.07,0002.02,0001.35
2024-04-03 05:27:00,SystemResetWarning,0830.8,5.01,000.00,023.6,022.7,000.0,032.3,025.5,11.9,0000.0,0005.08,0001.99,0001.34
2024-04-03 05:28:00,SystemResetWarning,0830.8,5.01,000.00,023.6,022.7,000.0,032.3,025.5,11.9,0000.0,0003.46,0001.96,0001.33
2024-04-03 05:29:00,SystemResetWarning,0830.8,4.99,000.00,023.6,022.7,000.0,032.3,025.5,11.9,0000.0,0003.58,0002.03,0001.34
2024-04-03 05:30:00,SystemResetWarning,0830.8,5.00,000.00,023.6,022.7,000.0,032.2,025.4,11.9,0000.0,0003.66,0002.02,0001.34
2024-04-03 05:31:00,SystemResetWarning,0830.8,5.00,000.00,023.6,022.6,000.0,032.2,025.4,11.9,0000.0,0004.00,0002.09,0001.34
2024-04-03 05:32:00,SystemResetWarning,0830.9,5.01,000.00,023.6,022.6,000.0,032.2,025.4,11.9,0000.0,0004.08,0002.12,0001.34
2024-04-03 05:33:00,SystemResetWarning,0830.8,5.00,000.00,023.6,022.6,000.0,032.2,025.4,11.8,0000.0,0003.84,0002.05,0001.33
2024-04-03 05:34:00,SystemResetWarning,0830.9,5.01,000.00,023.6,022.7,000.0,032.2,025.4,11.7,0000.0,0003.72,0002.00,0001.31
2024-04-03 05:35:00,SystemResetWarning,0830.8,5.00,000.00,023.6,022.7,000.0,032.2,025.4,11.9,0000.0,0003.78,0002.02,0001.31
2024-04-03 05:36:00,SystemResetWarning,0830.9,4.99,000.00,023.6,022.7,000.0,032.2,025.5,12.0,0000.0,0003.75,0002.00,0001.32
2024-04-03 05:37:00,SystemResetWarning,0830.8,4.99,000.00,023.6,022.7,000.0,032.2,025.4,11.9,0000.0,0003.65,0001.98,0001.32
2024-04-03 05:38:00,SystemResetWarning,0830.8,5.00,000.00,023.6,022.7,000.0,032.2,025.5,11.7,0000.0,0003.60,0001.99,0001.33
2024-04-03 05:39:00,SystemResetWarning,0830.8,5.01,000.00,023.6,022.7,000.0,032.2,025.4,11.8,0000.0,0003.69,0002.01,0001.33
2024-04-03 05:40:00,SystemResetWarning,0830.8,5.01,000.00,023.6,022.7,000.0,032.2,025.4,11.8,0000.0,0003.59,0001.98,0001.32
2024-04-03 05:41:00,SystemResetWarning,0830.8,4.99,000.00,023.6,022.8,000.0,032.2,025.4,11.7,0000.0,0003.46,0001.96,0001.31
2024-04-03 05:42:00,SystemResetWarning,0830.8,4.99,000.00,023.6,022.8,000.0,032.2,025.4,11.8,0000.0,0003.15,0001.90,0001.30
2024-04-03 05:43:00,SystemResetWarning,0830.8,5.00,000.00,023.6,022.8,000.0,032.2,025.5,11.9,0000.0,0003.11,0001.89,0001.29
2024-04-03 05:44:00,SystemResetWarning,0830.8,4.99,000.00,023.6,022.8,000.0,032.2,025.5,12.4,0000.0,0003.19,0001.90,0001.30
2024-04-03 05:45:00,SystemResetWarning,0830.9,5.01,000.00,023.6,022.8,000.0,032.2,025.5,11.8,0000.0,0003.21,0001.91,0001.30
2024-04-03 05:46:00,SystemResetWarning,0830.8,5.01,000.00,023.6,022.8,000.0,032.2,025.5,12.3,0000.0,0003.16,0001.91,0001.31
2024-04-03 05:47:00,SystemResetWarning,0830.8,5.00,000.00,023.6,022.8,000.0,032.2,025.4,12.0,0000.0,0003.11,0001.91,0001.31
2024-04-03 05:48:00,SystemResetWarning,0830.8,4.98,000.00,023.6,022.8,000.0,032.2,025.5,12.0,0000.0,0003.13,0001.91,0001.32
2024-04-03 05:49:00,SystemResetWarning,0830.8,5.01,000.00,023.6,022.8,000.0,032.2,025.5,12.2,0000.0,0003.07,0001.89,0001.31
2024-04-03 05:50:00,SystemResetWarning,0830.8,5.02,000.00,023.6,022.8,000.0,032.2,025.5,12.4,0000.0,0003.18,0001.90,0001.32
2024-04-03 05:51:00,SystemResetWarning,0830.8,4.99,000.00,023.6,022.8,000.0,032.2,025.5,12.4,0000.0,0003.20,0001.86,0001.32
2024-04-03 05:52:00,SystemResetWarning,0830.8,4.99,000.00,023.6,022.8,000.0,032.2,025.5,12.5,0000.0,0003.26,0001.86,0001.33
2024-04-03 05:53:00,SystemResetWarning,0830.8,5.01,000.00,023.6,022.8,000.0,032.2,025.4,12.3,0000.0,0003.43,0001.91,0001.35
2024-04-03 05:54:00,SystemResetWarning,0830.8,5.01,000.00,023.6,022.8,000.0,032.2,025.4,12.2,0000.0,0003.38,0001.90,0001.36
2024-04-03 05:55:00,SystemResetWarning,0830.8,5.00,000.00,023.6,022.8,000.0,032.2,025.4,12.1,0000.0,0003.33,0001.89,0001.35
2024-04-03 05:56:00,SystemResetWarning,0830.8,5.00,000.00,023.6,022.8,000.0,032.2,025.4,12.4,0000.0,0003.49,0001.95,0001.36
2024-04-03 05:57:00,SystemResetWarning,0830.8,4.99,000.00,023.6,022.8,000.0,032.2,025.4,12.3,0000.0,0003.41,0001.91,0001.36
2024-04-03 05:58:00,SystemResetWarning,0830.8,5.01,000.00,023.6,022.8,000.0,032.2,025.4,12.3,0000.0,0003.26,0001.86,0001.35
2024-04-03 05:59:00,SystemResetWarning,0830.8,5.00,000.00,023.6,022.8,000.0,032.2,025.4,12.4,0000.0,0003.28,0001.87,0001.34
